Satellite-Ground Cal/Val Site Overpasses Predictions

Prediction of Satellite NPP Overpassing Cal/Val Site: Antarctic Dome C

Ground Cal/Val Site Location: Latitude: -75.10, Longitude: 123.35; Satellite-Ground Site NADIR distance within 100 km.

Table of predicted overpasses for the next 14.0 days since TLE Epoch: 7/8/2015
Interval Starting Time Ending Time Minimum Distance Time Minimum Distance (km)
1 07/08/2015 15:05:37 07/08/2015 15:06:01 07/08/2015 15:05:49 55.80
2 07/09/2015 14:46:46 07/09/2015 14:47:10 07/09/2015 14:46:58 53.41
3 07/10/2015 07:48:27 07/10/2015 07:48:46 07/10/2015 07:48:36 75.03
4 07/11/2015 07:29:32 07/11/2015 07:30:00 07/11/2015 07:29:46 32.86
5 07/13/2015 15:11:56 07/13/2015 15:12:06 07/13/2015 15:12:01 93.56
6 07/14/2015 14:52:56 07/14/2015 14:53:25 07/14/2015 14:53:11 17.70
7 07/16/2015 07:35:44 07/16/2015 07:36:14 07/16/2015 07:35:59 3.84
8 07/19/2015 14:59:09 07/19/2015 14:59:38 07/19/2015 14:59:24 18.87
9 07/20/2015 14:40:27 07/20/2015 14:40:40 07/20/2015 14:40:33 88.28
